User: anonymous   Login
Location: Taaricht
(32.5378°N, 5.4251°W)
Time: 23:43:17
(UTC+00:00)
Language:

Cosmos 921 Rocket - Orbit

View from above orbital plane
View from above orbital plane
View from above satellite
View from above satellite

Ground track
Ground track

The orbit data is extracted from the following two-line orbital elements,

1 10096U 77055B   20188.40613790 +.00000005 +00000-0 +27894-5 0  9999
2 10096 075.8329 178.5389 0043531 246.0998 113.5629 14.88706380327988
Epoch (UTC): 06 July 2020 09:44:50
Eccentricity: 0.0043531
inclination: 75.8329°
perigee height: 571 km
apogee height: 632 km
right ascension of ascending node: 178.5389°
argument of perigee: 246.0998°
revolutions per day: 14.88706380
mean anomaly at epoch: 113.5629°
orbit number at epoch: 32798

The dashed part of the orbit path shows where the satellite is in the earth's shadow,  

DLR